IK2CHZ Weather Reports


time (UTC)temp
C
wind
direction
speed
KPH
gust
KPH
rain 1hr
cm
rain 24hr
cm
rain mn
cm
humidity
%
barometer
mb
20260503072003 19 306 0.0 0.0 0.00 0.00 0.00 54 1019.5
20260503054504 13 292 0.0 4.8 0.00 0.00 0.00 68 1019.4
20260503053503 13 290 3.2 4.8 0.00 0.00 0.00 69 1019.4
20260503053004 13 281 1.6 3.2 0.00 0.00 0.00 69 1019.4
20260503051004 12 281 1.6 3.2 0.00 0.00 0.00 70 1019.2
20260503050504 12 281 0.0 3.2 0.00 0.00 0.00 70 1019.2
20260503050003 12 281 1.6 3.2 0.00 0.00 0.00 71 1019.2
20260503043503 12 279 0.0 1.6 0.00 0.00 0.00 73 1019.2
20260503043004 12 278 0.0 1.6 0.00 0.00 0.00 72 1019.2
20260503042503 12 278 0.0 0.0 0.00 0.00 0.00 72 1019.2
20260503041504 12 278 0.0 0.0 0.00 0.00 0.00 72 1019.1
20260503041003 12 279 0.0 0.0 0.00 0.00 0.00 72 1019.0
20260503040504 12 278 0.0 0.0 0.00 0.00 0.00 72 1019.0
20260503035004 12 279 0.0 0.0 0.00 0.00 0.00 71 1019.1
20260503034503 12 279 0.0 0.0 0.00 0.00 0.00 71 1019.1
20260503034004 12 278 0.0 0.0 0.00 0.00 0.00 71 1019.1
20260503033504 12 279 0.0 0.0 0.00 0.00 0.00 70 1019.1
20260503032504 13 279 0.0 0.0 0.00 0.00 0.00 69 1019.1
20260503031503 13 278 0.0 0.0 0.00 0.00 0.00 69 1019.2
20260503030504 13 279 0.0 0.0 0.00 0.00 0.00 69 1019.2
20260503030004 13 278 0.0 0.0 0.00 0.00 0.00 68 1019.2
20260503024503 13 278 0.0 0.0 0.00 0.00 0.00 68 1019.2
20260503021003 13 279 0.0 0.0 0.00 0.00 0.00 66 1019.3
20260503020503 13 278 0.0 0.0 0.00 0.00 0.00 66 1019.4
20260503013503 13 278 0.0 0.0 0.00 0.00 0.00 65 1019.4
20260503012504 13 278 0.0 0.0 0.00 0.00 0.00 65 1019.5
20260503012003 13 278 0.0 0.0 0.00 0.00 0.00 64 1019.4
20260503011503 13 278 0.0 0.0 0.00 0.00 0.00 64 1019.4
20260503010504 14 278 1.6 3.2 0.00 0.00 0.00 63 1019.4
20260503005504 14 278 0.0 3.2 0.00 0.00 0.00 63 1019.5
20260503004504 14 278 0.0 3.2 0.00 0.00 0.00 63 1019.6
20260503003503 14 278 0.0 1.6 0.00 0.00 0.00 62 1019.7
20260503003004 14 278 0.0 1.6 0.00 0.00 0.00 62 1019.7
20260503002003 14 277 0.0 3.2 0.00 0.00 0.00 61 1019.9
20260503001503 15 277 0.0 3.2 0.00 0.00 0.00 61 1019.9
20260503001003 15 277 0.0 3.2 0.00 0.00 0.00 61 1020.0
20260502235503 15 274 0.0 3.2 0.00 0.00 0.00 60 1020.1
20260502234003 15 274 0.0 1.6 0.00 0.00 0.00 58 1020.3
20260502233503 15 274 0.0 3.2 0.00 0.00 0.00 58 1020.3
20260502233003 15 274 0.0 1.6 0.00 0.00 0.00 57 1020.4
20260502232503 15 274 0.0 1.6 0.00 0.00 0.00 57 1020.4
20260502232003 15 274 0.0 4.8 0.00 0.00 0.00 56 1020.3
20260502230503 16 274 0.0 3.2 0.00 0.00 0.00 54 1020.4
20260502230003 16 274 0.0 0.0 0.00 0.00 0.00 53 1020.5
20260502225503 16 274 0.0 3.2 0.00 0.00 0.00 52 1020.5
20260502224503 16 274 0.0 3.2 0.00 0.00 0.00 51 1020.5
20260502224003 16 274 0.0 3.2 0.00 0.00 0.00 51 1020.4
20260502222503 16 274 3.2 4.8 0.00 0.00 0.00 50 1020.6
20260502222003 16 226 0.0 3.2 0.00 0.00 0.00 52 1020.6
20260502221504 16 226 0.0 3.2 0.00 0.00 0.00 53 1020.6
20260502220003 18 225 0.0 0.0 0.00 0.00 0.00 47 1020.5
20260502215503 18 225 0.0 0.0 0.00 0.00 0.00 43 1020.5
20260502215003 18 225 0.0 0.0 0.00 0.00 0.00 44 1020.5
20260502214004 19 225 0.0 0.0 0.00 0.00 0.00 42 1020.4
20260502213504 19 225 0.0 0.0 0.00 0.00 0.00 42 1020.4
20260502213004 19 225 0.0 0.0 0.00 0.00 0.00 40 1020.4
20260502212504 19 225 0.0 0.0 0.00 0.00 0.00 40 1020.4
20260502212004 19 225 0.0 0.0 0.00 0.00 0.00 42 1020.4
20260502210503 20 225 0.0 0.0 0.00 0.00 0.00 38 1020.4
20260502210004 20 225 0.0 0.0 0.00 0.00 0.00 38 1020.5
20260502205504 20 225 0.0 0.0 0.00 0.00 0.00 38 1020.5
20260502205003 20 225 0.0 0.0 0.00 0.00 0.00 39 1020.4
20260502203003 20 225 0.0 0.0 0.00 0.00 0.00 39 1020.5
20260502202003 20 225 1.6 3.2 0.00 0.00 0.00 37 1020.4
20260502201503 20 225 3.2 4.8 0.00 0.00 0.00 40 1020.4
20260502201004 21 225 3.2 8.0 0.00 0.00 0.00 40 1020.4
20260502195504 21 245 0.0 0.0 0.00 0.00 0.00 34 1020.4
20260502194003 21 245 0.0 0.0 0.00 0.00 0.00 35 1020.3
20260502191504 21 245 0.0 0.0 0.00 0.00 0.00 35 1020.3
20260502190504 22 245 0.0 0.0 0.00 0.00 0.00 36 1020.2
20260502185504 22 245 0.0 0.0 0.00 0.00 0.00 32 1020.1
20260502184004 22 245 0.0 0.0 0.00 0.00 0.00 32 1020.0
20260502183503 22 245 0.0 0.0 0.00 0.00 0.00 31 1020.0
20260502182503 23 245 0.0 0.0 0.00 0.00 0.00 30 1020.0
20260502182003 23 245 0.0 0.0 0.00 0.00 0.00 29 1020.0
20260502181504 23 245 0.0 0.0 0.00 0.00 0.00 29 1019.9
20260502181004 23 245 0.0 0.0 0.00 0.00 0.00 29 1019.8
20260502170504 24 245 4.8 4.8 0.00 0.00 0.00 27 1019.9
20260502163504 25 243 0.0 0.0 0.00 0.00 0.00 26 1020.1
20260502163004 25 243 1.6 4.8 0.00 0.00 0.00 26 1020.2
20260502130503 22 175 0.0 8.0 0.00 0.00 0.00 29 1022.8
20260502123504 23 321 1.6 4.8 0.00 0.00 0.00 28 1023.3
20260502123003 22 293 1.6 8.0 0.00 0.00 0.00 29 1023.4
20260502122503 22 261 1.6 8.0 0.00 0.00 0.00 29 1023.4
20260502122004 22 318 4.8 9.7 0.00 0.00 0.00 29 1023.5
20260502115504 22 222 3.2 8.0 0.00 0.00 0.00 29 1023.7
20260502114003 21 253 3.2 8.0 0.00 0.00 0.00 31 1024.1
20260502112504 21 225 4.8 11.3 0.00 0.00 0.00 31 1024.2
20260502112004 22 212 3.2 4.8 0.00 0.00 0.00 30 1024.3
20260502110504 22 168 1.6 8.0 0.00 0.00 0.00 30 1024.5
20260502110004 22 191 1.6 4.8 0.00 0.00 0.00 32 1024.6
20260502101503 21 170 1.6 8.0 0.00 0.00 0.00 31 1025.3
20260502101003 21 179 1.6 4.8 0.00 0.00 0.00 34 1025.4